[[{"header":{"parameterUnit":"m.s-1","parameterCategory":1,"la1":30.2992,"la2":30.254,"lo1":-89.0895,"lo2":-89.0443,"dy":0.0025,"dx":0.0025,"nx":19,"ny":19,"refTime":"2026-04-17T03:00:00:Z","depth":0,"parameterNumber":2,"parameterNumberName":"U-component_of_WINDS"},"data":[0,0,0,0.2846,0.2848,0.2914,0.2914,0.2992,0.2992,0,0,0,0,0,0,0,0,0,0,0,0.2824,0.2825,0.2846,0.2848,0.2914,0.2914,0.2992,0.2992,0,0,0,0,0,0,0,0,0,0,0,0.2824,0.2824,0.2825,0.2848,0.2914,0.2914,0.2992,0.2944,0,0,0,0,0,0,0,0,0,0,0.2881,0.2858,0.2824,0.2825,0.2849,0.2914,0.2914,0.2942,0.2947,0.2959,0,0.2971,0,0.2983,0.2997,0.2998,0,0,0,0.285,0.2854,0.2874,0.2825,0.2849,0.2914,0.2885,0.2945,0.295,0.2966,0.2972,0.2975,0.2984,0.2998,0.2998,0.3064,0.3065,0,0,0.2846,0.2834,0.287,0.2877,0.2868,0.2883,0.2887,0.2948,0.2954,0.2972,0.2977,0.2985,0.2998,0.2999,0.3064,0.3064,0,0,0,0.2834,0.2832,0.2851,0.2874,0.2887,0.2884,0.2889,0.2951,0.2958,0.2978,0.2986,0.2999,0.3,0.3064,0.3064,0.3063,0,0,0,0.2832,0.2825,0.2849,0.2842,0.2885,0.292,0.289,0.2954,0.2961,0.2986,0.2999,0.3,0.3064,0.3064,0.3062,0.3064,0,0,0,0.2821,0.2824,0.2832,0.2842,0.287,0.2919,0.293,0.2956,0.2966,0.2998,0.3,0.3064,0.3064,0.3062,0.3063,0.3076,0,0,0,0.2805,0.2831,0.2832,0.2864,0.2869,0.2918,0.293,0.2967,0.2994,0.2999,0.3064,0.3064,0.3062,0.3063,0.3076,0.3085,0.3088,0,0,0.2831,0.2834,0.2854,0.2856,0.2902,0.2909,0.2954,0.299,0.3004,0.3043,0.3045,0.3062,0.3063,0.3076,0.311,0.3112,0,0,0,0.2858,0.2872,0.2886,0.2911,0.2939,0.2962,0.2993,0.3005,0.3039,0.3022,0.3072,0.3073,0.3081,0.3085,0.3087,0.3094,0.3066,0.3066,0.3066,0.2878,0.2894,0.2927,0.2949,0.2973,0.3003,0.3023,0.3045,0.3055,0.3066,0.3078,0.3096,0.3101,0.3103,0.311,0.3085,0.3085,0.3085,0.3085,0.2917,0.2938,0.2949,0.2984,0.3,0.303,0.3058,0.3063,0.3092,0.3089,0.3097,0.3092,0.3105,0.3111,0.3085,0.3085,0.3085,0.3085,0.3085,0.2931,0.2944,0.2959,0.2994,0.302,0.3042,0.3068,0.3082,0.3095,0.3103,0.3115,0.3116,0.3116,0.3108,0.3108,0.3108,0.3108,0.3108,0.3108,0.2939,0.2956,0.2977,0.3007,0.3024,0.3047,0.3075,0.3091,0.3113,0.312,0.3121,0.3127,0.3104,0.3096,0.3109,0.3109,0.3109,0.3109,0.3109,0.2971,0.2966,0.2998,0.3014,0.3049,0.3072,0.3089,0.312,0.3136,0.3148,0.3153,0.3133,0.3137,0.3135,0.313,0.315,0.315,0.315,0.315,0.2982,0.2985,0.302,0.3045,0.307,0.3088,0.3122,0.3143,0.3165,0.3175,0.3174,0.3167,0.3165,0.317,0.3168,0.3163,0.3192,0.3192,0.3192,0.3001,0.3007,0.3034,0.3055,0.3083,0.3105,0.3137,0.3164,0.3187,0.3194,0.3182,0.3181,0.3171,0.3167,0.3173,0.3169,0.316,0,0]},{"header":{"parameterUnit":"m.s-1","parameterCategory":1,"la1":30.2992,"la2":30.254,"lo1":-89.0895,"lo2":-89.0443,"dy":0.0025,"dx":0.0025,"nx":19,"ny":19,"refTime":"2026-04-17T03:00:00:Z","depth":0,"parameterNumber":3,"parameterNumberName":"V-component_of_WINDS"},"data":[0,0,0,0.9335,0.9335,0.9336,0.9336,0.9346,0.9347,0,0,0,0,0,0,0,0,0,0,0,0.9342,0.9342,0.9335,0.9335,0.9336,0.9336,0.9346,0.9347,0,0,0,0,0,0,0,0,0,0,0,0.9342,0.9342,0.9342,0.9335,0.9336,0.9336,0.9346,0.9342,0,0,0,0,0,0,0,0,0,0,0.934,0.9353,0.9342,0.9342,0.9335,0.9336,0.9336,0.9342,0.9342,0.9351,0,0.936,0,0.9354,0.9348,0.9348,0,0,0,0.933,0.9353,0.9346,0.9342,0.9335,0.9336,0.9334,0.9342,0.9343,0.9352,0.936,0.9361,0.9354,0.9348,0.9348,0.9414,0.9414,0,0,0.933,0.9346,0.9346,0.9347,0.9348,0.9334,0.9334,0.9342,0.9353,0.936,0.9361,0.9354,0.9348,0.9348,0.9413,0.9414,0,0,0,0.9333,0.9346,0.9339,0.9347,0.9346,0.9334,0.9334,0.9352,0.9349,0.9361,0.9354,0.9348,0.9349,0.9412,0.9413,0.9455,0,0,0,0.9333,0.9348,0.9339,0.9349,0.9347,0.935,0.9344,0.9348,0.9349,0.9354,0.9348,0.9349,0.9412,0.9413,0.9453,0.9472,0,0,0,0.9339,0.9348,0.9351,0.935,0.935,0.9349,0.9346,0.9348,0.9345,0.9348,0.9349,0.9411,0.9413,0.945,0.9469,0.9493,0,0,0,0.935,0.9388,0.9352,0.9391,0.9351,0.9375,0.9346,0.9363,0.9371,0.9349,0.9412,0.9413,0.945,0.9466,0.9491,0.9517,0.953,0,0,0.9407,0.9396,0.9418,0.9385,0.942,0.9374,0.9414,0.9407,0.9393,0.9407,0.9409,0.9453,0.9468,0.9493,0.9593,0.9603,0,0,0,0.9441,0.9457,0.9463,0.947,0.9465,0.9462,0.9446,0.9443,0.9454,0.9404,0.9469,0.9477,0.9491,0.9503,0.9511,0.9522,0.9419,0.9419,0.9419,0.9543,0.9523,0.9558,0.9537,0.9545,0.9528,0.9532,0.9525,0.9503,0.9518,0.9522,0.9586,0.96,0.9606,0.9617,0.9534,0.9535,0.9535,0.9535,0.9624,0.9643,0.9611,0.9634,0.9612,0.963,0.9615,0.9598,0.9612,0.9581,0.9592,0.956,0.9618,0.9626,0.9538,0.9537,0.9537,0.9537,0.9536,0.9688,0.9694,0.9689,0.9697,0.9706,0.9683,0.9698,0.9677,0.9658,0.9669,0.9671,0.967,0.9666,0.9671,0.9672,0.9672,0.9672,0.9672,0.9672,0.9757,0.975,0.9765,0.9762,0.9763,0.9763,0.9745,0.9746,0.9742,0.9726,0.9725,0.9701,0.9627,0.9609,0.9676,0.9675,0.9675,0.9674,0.9674,0.9846,0.9823,0.9845,0.9847,0.9841,0.985,0.9823,0.9826,0.9824,0.9832,0.9805,0.9753,0.974,0.9733,0.9718,0.9809,0.9809,0.9809,0.9809,0.9901,0.9892,0.991,0.9914,0.9915,0.9893,0.9918,0.9904,0.9886,0.9883,0.9867,0.9845,0.9838,0.9829,0.982,0.9806,0.9917,0.9917,0.9917,0.9954,0.9944,0.997,0.9952,0.9945,0.994,0.9963,0.9968,0.9942,0.9921,0.988,0.9875,0.9839,0.9829,0.9808,0.9794,0.9767,0,0]}]]